Weather History for Huntington, WV

Change the Weather History Date:

Saturday, March 9, 2013

  Actual Average Record
Temperature  
Mean Temperature 45 °F 44 °F  
Max Temperature 64 °F 54 °F 79 °F (1974)
Min Temperature 26 °F 33 °F 10 °F (1996)
Degree Days  
Heating Degree Days 20 22  
Month to date heating degree days 264 206  
Since 1 July heating degree days 3679 3707  
Cooling Degree Days 0 0  
Month to date cooling degree days 0 0  
Year to date cooling degree days 0 0  
Moisture  
Dew Point 27 °F    
Average Humidity 55    
Maximum Humidity 85    
Minimum Humidity 25    
Precipitation  
Precipitation 0.00 in 0.13 in 2.63 in (1994)
Month to date precipitation 0.70 1.10  
Year to date precipitation 6.38 7.14  
Snow  
Snow 0.00 in - - ()
Month to date snowfall T  
Since 1 September snowfall 11.9  
Snow Depth 0.00 in    
Sea Level Pressure  
Sea Level Pressure 30.26 in    
Wind  
Wind Speed 3 mph (ENE)    
Max Wind Speed 9 mph    
Max Gust Speed 14 mph    
Visibility 10 miles    
Events      
T = Trace of Precipitation, MM = Missing Value Source: NWS Daily Summary

Daily Weather History Graph

Daily Weather History Graph

Search for Another Location

Airport:

Trip Planner

Search our weather history database for the weather conditions in past years. The results will help you decide how hot, cold, wet, or windy it might be!

Date:

Astronomy

Mar. 09, 2013 Rise Set
Actual Time 6:50 AM EST 6:31 PM EST
Civil Twilight 6:23 AM EST 6:58 PM EST
Nautical Twilight 5:53 AM EST 7:28 PM EST
Astronomical Twilight 5:22 AM EST 7:59 PM EST
Moon 5:11 AM EST (3/9) 4:33 PM EST (3/9)
Length of Visible Light 12h 34m
Length of Day
11h 41m
Waning Crescent, 5% of the Moon is Illuminated
Mar 9
Waning Crescent
Mar 11
New
Mar 19
First Quarter
Mar 27
Full
Apr 3
Last Quarter

Hourly Weather History & Observations

Time (EST) Temp. Windchill Dew Point Humidity Pressure Visibility Wind Dir Wind Speed Gust Speed Precip Events Conditions
12:51 AM 30.0 °F 26.5 °F 24.1 °F 79% 30.37 in 10.0 mi WSW 3.5 mph - N/A   Clear
1:51 AM 32.0 °F - 24.1 °F 73% 30.38 in 10.0 mi Calm Calm - N/A   Clear
2:51 AM 28.0 °F - 24.1 °F 85% 30.37 in 10.0 mi Calm Calm - N/A   Clear
3:51 AM 28.0 °F - 24.1 °F 85% 30.34 in 10.0 mi Calm Calm - N/A   Clear
4:51 AM 28.0 °F 22.8 °F 24.1 °F 85% 30.33 in 10.0 mi East 4.6 mph - N/A   Clear
5:51 AM 28.0 °F - 23.0 °F 81% 30.34 in 10.0 mi Calm Calm - N/A   Clear
6:51 AM 28.0 °F - 23.0 °F 81% 30.35 in 10.0 mi Calm Calm - N/A   Clear
7:51 AM 30.0 °F - 25.0 °F 82% 30.36 in 10.0 mi Calm Calm - N/A   Clear
8:51 AM 34.0 °F 29.8 °F 27.0 °F 75% 30.35 in 10.0 mi ENE 4.6 mph - N/A   Clear
9:51 AM 39.9 °F 35.8 °F 28.9 °F 65% 30.33 in 10.0 mi ENE 5.8 mph - N/A   Clear
10:51 AM 46.0 °F 44.8 °F 28.9 °F 51% 30.32 in 10.0 mi Variable 3.5 mph - N/A   Clear
11:51 AM 51.1 °F - 32.0 °F 48% 30.30 in 10.0 mi Variable 4.6 mph - N/A   Clear
12:51 PM 55.0 °F - 27.0 °F 34% 30.26 in 10.0 mi ESE 8.1 mph - N/A   Clear
1:51 PM 57.9 °F - 27.0 °F 31% 30.22 in 10.0 mi ENE 4.6 mph - N/A   Clear
2:51 PM 61.0 °F - 28.0 °F 29% 30.20 in 10.0 mi ENE 5.8 mph - N/A   Clear
3:51 PM 62.1 °F - 28.0 °F 28% 30.18 in 10.0 mi East 5.8 mph - N/A   Clear
4:51 PM 63.0 °F - 28.0 °F 27% 30.16 in 10.0 mi NNE 4.6 mph - N/A   Clear
5:51 PM 62.1 °F - 28.0 °F 28% 30.14 in 10.0 mi NE 4.6 mph - N/A   Clear
6:51 PM 60.1 °F - 25.0 °F 26% 30.14 in 10.0 mi NE 3.5 mph - N/A   Clear
7:51 PM 57.0 °F - 26.1 °F 30% 30.14 in 10.0 mi Calm Calm - N/A   Clear
8:51 PM 51.1 °F - 28.0 °F 41% 30.12 in 10.0 mi East 5.8 mph - N/A   Clear
9:51 PM 51.1 °F - 28.0 °F 41% 30.13 in 10.0 mi Calm Calm - N/A   Clear
10:51 PM 48.0 °F - 30.9 °F 52% 30.13 in 10.0 mi Calm Calm - N/A   Clear
11:51 PM 46.9 °F - 32.0 °F 56% 30.12 in 10.0 mi Calm Calm - N/A   Overcast